G1 CYXU-CYXU

Flight info

Callsign G1
Flight time N/A
Altitude 1900
Route CIRCUITS
Aircraft F16

Departure

Time 2026-04-21 22:18
Airport London International Airport (CYXU)

Arrival

Time N/A
Airport London International Airport (CYXU)
Time Latitude Longitude Altitude Speed Heading
2026-04-21 22:13 43.03573 -81.16432 909 ft 0 kts 333°
2026-04-21 22:14 43.03592 -81.16430 909 ft 13 kts 24°
2026-04-21 22:14 43.03624 -81.16297 909 ft 20 kts 78°
2026-04-21 22:14 43.03657 -81.16055 905 ft 27 kts 81°
2026-04-21 22:15 43.03689 -81.15834 902 ft 22 kts 80°
2026-04-21 22:15 43.03774 -81.15772 901 ft 21 kts 315°
2026-04-21 22:15 43.03878 -81.15908 903 ft 20 kts 320°
2026-04-21 22:15 43.03985 -81.16014 906 ft 12 kts 347°
2026-04-21 22:16 43.04016 -81.16013 908 ft 0 kts
2026-04-21 22:16 43.04040 -81.16011 909 ft 1 kts
2026-04-21 22:16 43.04057 -81.16010 909 ft 7 kts
2026-04-21 22:16 43.04116 -81.15970 910 ft 12 kts 53°
2026-04-21 22:17 43.04122 -81.15883 909 ft 9 kts 134°
2026-04-21 22:17 43.03730 -81.15419 906 ft 169 kts 142°
2026-04-21 22:17 43.02720 -81.14208 1018 ft 189 kts 140°
2026-04-21 22:17 43.01838 -81.12892 1145 ft 190 kts 115°
2026-04-21 22:18 43.01822 -81.11128 1146 ft 201 kts 67°
2026-04-21 22:18 43.02968 -81.10007 1066 ft 219 kts 359°
2026-04-21 22:18 43.04309 -81.10817 1254 ft 207 kts 323°
2026-04-21 22:18 43.05391 -81.12001 1556 ft 196 kts 315°
2026-04-21 22:19 43.06414 -81.13290 1712 ft 234 kts 310°
2026-04-21 22:19 43.07661 -81.15067 1829 ft 293 kts 308°
2026-04-21 22:19 43.08560 -81.17586 1833 ft 310 kts 258°
2026-04-21 22:19 43.07378 -81.19556 1768 ft 273 kts 172°
2026-04-21 22:20 43.05950 -81.18063 1246 ft 255 kts 139°
2026-04-21 22:20 43.04765 -81.16600 1040 ft 199 kts 140°
2026-04-21 22:20 43.03835 -81.15504 904 ft 152 kts 141°
2026-04-21 22:20 43.02980 -81.14471 980 ft 163 kts 139°
2026-04-21 22:21 43.02133 -81.13422 1000 ft 179 kts 147°